Location: Ozark
(37.5425°N, 88.7628°W)
Time: 00:37:56
(UTC+00:00)

Cosmos 2322 Rocket - Pass Details

Date: 26 January 2020
Orbit: 831 x 852 km, 71.0° (Epoch: 27 February)

Event Time Altitude Azimuth Distance (km) Brightness Sun altitude
Rises 12:35:05 0° 247° (WSW) 3,390 4.9 -6.1°
Reaches altitude 10° 12:38:26 10° 267° (W) 2,463 4.0 -5.5°
Maximum altitude 12:42:01 17° 307° (NW) 2,021 3.6 -4.8°
Drops below altitude 10° 12:45:38 10° 347° (NNW) 2,479 4.3 -4.1°
Sets 12:49:02 0° 7° (N) 3,422 5.2 -3.5°
